Location: ???????
(55.3754°N, 39.3545°E)
Time: 09:26:19
(UTC+00:00)

NOSS 3-4 (C) - Pass Details

Date: 14 April 2026
Orbit: 773 x 1438 km, 63.4° (Epoch: 26 December)

Event Time Altitude Azimuth Distance (km) Brightness Sun altitude
Rises 19:55:27 0° 241° (WSW) 3,281 6.2 -22.5°
Reaches altitude 10° 19:57:46 10° 244° (WSW) 2,391 5.5 -22.6°
Maximum altitude 20:03:13 69° 328° (NNW) 937 3.5 -22.9°
Drops below altitude 10° 20:09:28 10° 52° (NE) 2,731 6.0 -23.2°
Sets 20:12:17 0° 55° (NE) 3,784 6.8 -23.3°
